Карточка аэропорта USHH

Внимание!
Информация на этой странице в стадии наполнения.
Если вы не увидели какой-то информации, или заметили неточность - пожалуйста сообщите нам!
Спасибо!
Команда RU-STAFF
Название аэропортаХанты-Мансийск
Название аэропорта (англ.)Khanty-Mansiysk
Превышение141 ft. (43 m.)
Координаты61°1.7039999999999', 69°5.1599999999999'
Высота перехода800m
Эшелон переходаFL050
Коды ответчика5150-5177
Зона ОрВДТюмень РПИ (USTV)
Данные METARUSHH 050700Z 27002MPS 9999 -SN BKN003 M11/M12 Q1041 R06/390035 TEMPO 2000 SN BR
Проноз погоды (TAF)USHH 050454Z 0506/0606 26003G08MPS 6000 -SN BKN004 OVC016 TEMPO 0506/0606 1200 BR BKN002 OVC010
NOTAMshow/hide NOTAM
AWOS   TABLE

Информация о ВПП

ВПП Длина ВПП (м.) Покрытие Курс ВПП Частота ILS
062800Асфальтобетон58111.9
242800Асфальтобетон238110.1

Диспетчерские позиции

Позывной Наименование органа УВД Частота
USHH_TWRХантым-Вышка118.1
USHH_R_APPХантым-Круг120.4



Спутниковое изображение